SCP
0 0 0 0 0 0 0 0 0 0 0 0 0 0 0 0 0 0 0 0 0 0 0 0 0 0 0 0 0 0 0 0 0 0 0 0 0 0 0 0 0 0 0
0 0 0 0 0 0 0 0 0 0 0 0 0 0 0 0 0 0 0 0 0 0 0 0 0 0 0 0 0 0 0 0 0 0 0 0 0 0 0 0 0 0 0
0 0 0 0 0 0 0 0 0 0 0 0 0 0 0 0 0 0 0 0 0 0 0 0 0 0 0 0 0 0 0 0 0 0 0 0 0 0 0 0 0 0 0
0 0 0 0 0 0 0 0 0 0 0 0 0 0 0 0 0 0 0 0 0 0 0 0 0 0 0 0 0 0 0 0 0 0 0 0 0 0 0 0 0 0 0
0 0 0 0 0 0 0 0 0 0 0 0 0 0 0 0 0 0 0 0 0 0 0 0 0 0 0 0 0 0 0 0 0 0 0 0 0 0 0 0 0 0 0
0 0 0 0 0 0 0 0 0 0 0 0 0 0 0 0 0 0 0 0 0 0 0 0 0 0 0 0 0 0 0 0 0 0 0 0 0 0 0 0 0 0 0
0 0 0 0 0 0 0 0 0 0 0 0 0 0 0 0 0 0 0 0 0 0 0 0 0 0 0 0 0 0 0 0 0 0 0 0 0 0 0 0 0 0 0
0 0 0 0 0 0 0 0 0 0 0 0 0 0 0 0 0 0 0 0 0 0 0 0 0 0 0 0 0 0 0 0 0 0 0 0 0 0 0 0 0 0 0
0 0 0 0 0 0 0 0 0 0 0 0 0 0 0 0 0 0 0 0 0 0 0 0 0 0 0 0 0 0 0 0 0 0 0 0 0 0 0 0 0 0 0
0 0 0 0 0 0 0 0 0 0 0 0 0 0 0 0 0 0 0 0 0 0 0 0 0 0 0 0 0 0 0 0 0 0 0 0 0 0 0 0 0 0 0
0 0 0 0 0 0 0 0 0 0 0 0 0 0 0 0 0 0 0 0 0 0 0 0 0 0 0 0 0 0 0 0 0 0 0 0 0 0 0 0 0 0 0
0 0 0 0 0 0 0 0 0 0 0 0 0 0 0 0 0 0 0 0 0 0 0 0 0 0 0 0 0 0 0 0 0 0 0 0 0 0 0 0 0 -0 -0
0 0 0 0 0 0 0 0 0 0 0 0 0 0 0 0 0 0 0 0 0 0 0 0 0 0 0 0 0 0 0 0 0 0 0 0 0 0 0 0 -0 -0 -0
0 0 0 0 0 0 0 0 0 0 0 0 0 0 0 0 0 0 0 0 0 0 0 0 0 0 0 0 0 0 0 0 0 0 0 0 0 0 0 0 0 0 0
0 0 0 0 0 0 0 0 0 0 0 0 0 0 0 0 0 0 0 0 0 0 0 0 0 0 0 0 0 0 0 0 0 0 0 0 0 0 0 0 0 0 0
0 0 0 0 0 0 0 0 0 0 0 0 0 0 0 0 0 0 0 0 0 0 0 0 0 0 0 0 0 0 0 0 0 0 0 0 0 0 0 0 0 0 0
0 0 0 0 0 0 0 0 0 0 0 0 0 0 0 0 0 0 0 0 0 0 0 0 0 0 0 0 0 0 0 0 0 0 0 0 0 0 0 0 0 0 0
0 0 0 0 0 0 0 0 0 0 0 0 0 0 0 0 0 0 0 0 0 0 0 0 0 0 0 0 0 0 0 0 0 0 0 0 0 0 0 0 0 0 0
0 0 0 0 0 0 0 0 0 0 0 0 0 0 0 0 0 0 0 0 0 0 0 0 0 0 0 0 0 0 0 0 0 0 0 0 0 0 0 0 0 0 0
0 0 0 0 0 0 0 0 0 0 0 0 0 0 0 0 0 0 0 0 0 0 0 0 0 0 0 0 0 0 0 0 0 0 0 0 0 0 0 0 0 0 0
0 0 0 0 0 0 0 0 0 0 0 0 0 0 0 0 0 0 0 0 0 0 0 0 0 0 0 0 0 0 0 0 0 0 0 0 0 0 0 0 0 0 0
0 0 0 0 0 0 0 0 0 0 0 0 0 0 0 0 0 0 0 0 0 0 0 0 0 0 0 0 0 0 0 0 0 0 0 0 0 0 0 0 0 0 0
0 0 0 0 0 0 0 0 0 0 0 0 0 0 0 0 0 0 0 0 0 0 0 0 0 0 0 0 0 0 0 0 0 0 0 0 0 0 0 0 0 0 0
0 0 0 0 0 0 0 0 0 0 0 0 0 0 0 0 0 0 0 0 0 0 0 0 0 0 0 0 0 0 0 0 0 0 0 0 0 0 0 0 0 0 0
0 0 0 0 0 0 0 0 0 0 0 0 0 0 0 0 0 0 0 0 0 0 0 0 0 0 0 0 0 0 0 0 0 0 0 0 0 0 0 0 0 0 0
0 0 0 0 0 0 0 0 0 0 0 0 0 0 0 0 0 0 0 0 0 0 0 0 0 0 0 0 0 0 0 0 0 0 0 0 0 0 0 0 0 0 0
Wind_Speed
6 6 6 5 5 5 5 5 4 3 4 4 4 4 4 3 3 4 3 3 3 2 2 3 2 1 2 1 2 2 2 3 2 1 1 2 2 2 1 1 1 1 1
6 6 6 5 5 5 5 4 4 4 4 4 4 4 3 3 3 4 4 3 3 3 2 2 1 2 2 1 2 2 2 2 3 2 1 2 1 1 1 1 1 1 0
6 6 6 6 6 5 5 4 4 4 4 4 4 4 4 3 4 4 4 3 3 3 2 2 1 2 2 2 2 2 2 2 2 3 1 1 1 1 2 2 2 2 1
6 7 7 6 6 6 5 4 4 5 5 4 4 4 4 4 4 4 4 4 3 3 2 2 2 2 2 2 2 2 2 3 3 3 2 1 1 1 2 1 2 2 2
7 7 6 6 5 5 4 4 4 4 5 5 5 4 4 4 4 4 4 4 4 3 2 2 2 3 4 3 3 3 3 3 3 2 2 1 1 1 1 0 1 1 2
7 6 6 6 6 5 5 4 4 4 4 5 5 5 4 3 6 7 6 4 4 4 3 2 2 3 4 5 6 6 5 5 4 3 1 1 1 1 0 1 0 1 2
7 6 6 7 6 5 5 5 5 4 4 4 4 4 4 4 7 8 8 5 4 3 3 2 2 2 3 3 4 5 4 4 5 4 3 2 2 2 1 1 1 1 2
6 6 6 7 6 5 5 5 5 4 4 4 4 4 4 4 7 8 8 5 4 3 3 3 3 2 2 3 3 3 2 2 2 2 3 2 2 2 2 2 2 1 1
6 6 6 7 7 6 6 5 4 5 4 4 4 4 4 4 6 8 8 5 4 3 2 3 3 3 3 5 5 4 2 2 2 4 3 2 3 2 2 2 2 2 1
7 7 6 6 7 7 7 5 4 5 4 4 3 3 4 4 6 8 8 4 4 2 2 2 3 4 5 6 4 4 2 0 1 2 3 3 3 3 3 2 2 1 0
6 6 6 6 6 6 5 4 5 5 5 4 4 2 3 4 5 8 8 4 4 3 2 1 1 4 5 5 5 3 3 2 1 2 2 2 2 2 2 1 1 2 2
6 6 6 5 5 5 5 4 5 6 5 4 3 2 1 2 4 6 7 6 6 5 3 2 2 4 4 4 3 4 5 4 2 2 2 1 1 1 2 1 1 0 1
6 6 6 5 4 5 6 6 5 5 4 4 4 3 1 1 2 5 7 7 7 4 3 5 4 4 4 3 4 4 4 3 2 2 0 1 1 1 1 1 2 1 2
7 6 5 5 4 4 4 5 5 5 5 4 4 4 2 2 2 2 3 3 4 3 3 4 5 4 3 3 3 2 2 2 2 1 0 1 1 1 1 1 1 2 2
7 6 5 5 5 4 3 3 4 4 6 7 6 5 5 4 5 7 6 4 4 4 4 3 2 2 2 1 1 1 1 1 1 0 1 0 1 1 1 1 1 1 1
6 6 5 4 4 4 4 2 1 2 4 6 6 6 4 5 7 8 7 6 7 8 6 3 2 2 2 2 2 1 1 1 1 1 1 1 0 0 1 1 1 1 1
8 7 5 5 5 5 4 5 3 1 2 3 5 6 6 7 8 8 8 7 7 8 4 3 3 3 3 2 2 2 2 1 1 1 1 1 1 0 0 1 1 1 1
7 7 6 5 5 5 5 4 4 5 3 1 2 5 6 7 8 9 9 7 4 3 3 3 3 3 3 3 3 2 2 1 1 1 1 1 1 1 1 1 1 1 2
6 5 5 4 4 4 4 4 4 4 4 3 2 2 5 6 7 7 8 5 4 4 3 3 3 3 3 3 3 2 2 2 2 1 1 1 1 1 1 1 1 2 2
5 7 6 5 5 4 4 4 4 4 4 4 4 4 4 4 3 4 3 3 3 4 3 3 3 3 3 3 2 2 2 2 2 2 2 1 1 1 2 2 1 2 2
4 6 7 5 5 5 5 5 5 4 4 4 3 4 7 5 5 5 4 4 4 4 3 3 3 3 3 3 2 3 3 2 2 2 2 2 2 2 1 1 2 2 2
4 4 5 5 5 5 5 5 5 5 5 4 3 3 7 4 3 3 3 4 3 3 3 3 3 3 3 3 3 3 3 3 2 2 2 2 2 2 1 1 2 2 2
5 5 4 4 4 6 5 4 4 5 4 4 4 4 4 4 3 3 3 3 3 2 2 3 3 2 2 2 3 3 3 3 3 3 3 2 2 2 2 2 2 2 2
5 5 5 5 5 5 5 5 5 5 5 4 4 4 4 4 4 4 4 3 3 3 2 3 3 3 4 2 2 2 2 2 2 3 4 3 3 2 2 2 2 3 3
5 5 5 5 5 5 5 5 5 5 5 5 4 4 4 4 4 4 3 3 4 3 3 3 3 3 4 4 3 2 2 3 2 1 2 2 3 3 3 3 2 2 2
5 5 5 5 5 5 5 5 5 5 5 4 4 4 4 4 4 4 3 3 3 3 3 3 3 4 3 3 3 3 3 3 2 2 1 2 2 2 2 2 3 2 2
Wind_Direction
177 174 169 173 171 163 168 178 174 167 162 156 155 149 143 140 134 126 126 116 115 105 102 107 92 88 95 90 87 85 89 112 132 345 15 28 57 60 36 38 35 33 27
177 169 167 167 162 160 170 175 168 165 164 156 148 145 145 137 134 132 134 128 124 117 108 100 89 88 83 85 88 86 91 107 133 130 27 31 48 62 60 53 32 33 11
168 162 159 160 160 166 168 164 162 158 150 145 139 142 137 132 128 130 132 131 127 125 124 120 118 108 88 86 92 89 83 86 96 118 83 25 30 40 41 27 25 4 0
161 161 164 171 173 170 164 162 163 156 148 143 137 139 138 133 129 126 121 122 117 112 116 120 122 129 138 128 113 117 107 93 90 98 84 39 21 1 49 30 7 354 351
161 163 172 172 165 156 154 155 150 149 149 143 135 134 131 131 141 138 131 128 123 111 97 99 107 117 125 127 129 134 123 111 103 97 86 57 23 19 357 313 3 341 339
163 169 167 158 154 153 152 142 136 139 140 136 138 140 136 146 152 150 142 135 135 131 122 104 93 84 93 97 116 125 134 136 139 127 119 122 244 256 286 60 67 33 327
162 163 162 159 156 157 151 139 139 144 140 136 143 139 141 151 153 150 148 138 133 138 139 133 119 93 81 88 90 83 87 114 139 146 147 186 198 217 164 106 140 171 247
159 161 164 159 155 150 147 149 146 140 140 143 147 149 144 152 148 146 139 125 118 121 128 134 130 122 115 114 105 86 70 62 111 133 160 194 197 198 178 176 183 175 305
165 167 166 160 157 156 159 161 152 142 141 143 146 147 145 150 146 143 135 123 116 114 120 128 136 138 139 122 110 103 77 33 62 89 105 96 76 77 104 90 70 72 335
175 173 165 161 161 167 168 160 149 145 147 143 139 151 156 158 152 146 139 128 126 126 113 121 135 139 137 132 128 125 120 40 54 53 46 37 36 39 56 104 149 134 201
168 159 157 161 164 164 157 151 145 141 138 140 139 147 156 162 162 154 148 144 151 147 143 153 154 137 129 131 131 140 150 137 102 86 58 31 24 22 15 23 97 152 165
153 154 155 157 162 155 152 150 148 144 143 145 139 136 152 168 166 165 160 160 158 154 166 175 159 142 131 129 126 125 117 104 90 76 58 26 10 351 339 347 358 356 192
149 155 156 155 156 156 159 157 152 152 154 161 160 167 181 174 163 159 158 157 157 156 166 162 151 139 128 115 107 112 111 103 102 95 71 301 286 292 326 349 358 2 348
157 160 157 154 152 152 158 160 158 162 164 168 171 173 171 159 160 155 157 155 148 145 144 138 130 117 109 100 88 86 106 129 139 150 207 299 339 358 354 352 351 352 356
160 162 159 159 160 156 155 162 169 181 182 176 180 177 170 182 197 176 163 167 168 160 131 104 100 103 105 82 72 73 90 100 119 128 116 38 8 8 340 338 3 15 345
160 161 161 159 159 155 149 122 75 148 172 178 174 172 183 181 167 166 166 163 156 145 128 135 153 160 164 170 165 163 152 172 185 166 158 171 189 244 321 341 5 355 319
168 168 163 163 163 161 161 160 153 79 99 149 171 174 171 163 160 162 160 152 147 141 138 163 173 179 181 180 181 184 200 207 181 165 178 197 204 233 306 322 328 324 312
167 166 165 171 170 169 171 171 168 164 164 179 180 176 172 165 161 158 149 133 134 148 166 176 183 186 185 187 190 195 200 184 168 177 186 198 200 209 258 284 286 290 296
166 168 166 163 163 164 164 160 163 167 167 166 148 155 163 154 151 155 148 149 168 183 190 190 188 187 189 189 189 188 185 190 191 186 199 208 206 201 240 258 268 294 294
167 166 161 160 158 159 162 161 162 162 166 171 176 176 151 138 150 165 173 176 179 187 190 192 193 188 185 184 184 182 191 199 195 195 207 213 214 214 232 247 261 277 275
161 165 160 159 166 168 167 168 168 167 172 177 187 179 164 167 177 178 178 185 190 192 189 184 185 186 183 177 179 187 197 207 201 194 202 215 214 221 235 237 251 259 273
158 164 171 173 170 169 169 170 168 170 173 173 172 164 166 162 171 175 181 189 193 191 183 176 180 186 187 185 186 190 200 207 203 197 201 208 214 221 225 237 250 262 273
160 163 165 166 165 162 163 168 170 172 173 174 169 162 167 179 181 182 184 184 177 177 173 167 170 178 184 192 193 191 199 212 212 204 200 203 212 222 226 235 245 261 268
166 169 171 170 167 168 172 175 175 174 172 173 175 175 176 181 185 184 181 176 170 169 168 171 177 178 175 179 192 196 201 209 203 200 197 199 210 223 232 243 247 253 260
167 169 173 174 174 175 175 174 176 176 175 177 179 178 176 177 180 182 179 175 171 171 174 173 178 180 182 184 187 194 196 188 184 194 199 199 207 220 230 239 247 259 265
168 170 172 171 173 175 177 179 179 178 179 179 177 176 176 178 180 176 171 169 172 173 173 176 179 177 177 187 189 186 182 178 178 180 183 195 206 221 228 237 246 254 260